Location: NJAA Observatory
(40.6819°N, 74.8979°W)
Time: 08:57:57
(UTC-05:00)

Cosmos 1328 Rocket - Visible Passes

Search period start: 20 January 2017 00:00
Search period end: 30 January 2017 00:00
Orbit: 602 x 627 km, 82.5° (Epoch: 19 January)

Date Brightness Start Highest point End Pass type
(mag) Time Alt. Az. Time Alt. Az. Time Alt. Az.
20 Jan 6.9 05:11:06 10° ESE 05:12:27 11° E 05:13:47 10° ENE visible
20 Jan 3.6 06:45:22 10° SSW 06:49:38 57° W 06:53:56 10° N visible
20 Jan 6.3 18:32:07 10° NW 18:35:25 21° W 18:38:43 10° SW visible
21 Jan 6.2 05:24:56 10° SE 05:28:08 20° E 05:31:23 10° NE visible
21 Jan 6.9 18:49:39 10° WNW 18:51:08 11° W 18:52:36 10° WSW visible
22 Jan 5.2 05:39:57 10° SSE 05:43:55 36° E 05:47:57 10° NNE visible
23 Jan 3.9 05:55:30 10° S 05:59:48 69° E 06:04:10 10° NNE visible
23 Jan 5.2 17:41:39 10° NNW 17:45:48 40° W 17:49:57 10° SSW visible
24 Jan 7.0 04:37:55 10° E 04:38:38 10° E 04:39:20 10° ENE visible
24 Jan 3.5 06:11:28 10° SSW 06:15:45 63° W 06:20:07 10° N visible
24 Jan 6.3 17:58:09 10° NW 18:01:36 22° W 18:05:03 10° SW visible
25 Jan 6.3 04:51:15 10° SE 04:54:19 19° E 04:57:25 10° NE visible
25 Jan 4.2 06:27:51 10° SW 06:31:49 34° WNW 06:35:50 10° N visible
25 Jan 6.8 18:15:26 10° WNW 18:17:20 13° W 18:19:13 10° WSW visible
26 Jan 5.2 05:06:11 10° SSE 05:10:06 34° E 05:14:04 10° NNE visible
26 Jan 4.8 06:44:47 10° WSW 06:47:58 20° WNW 06:51:10 10° NNW visible
27 Jan 3.9 05:21:40 10° S 05:25:58 64° E 05:30:18 10° NNE visible
28 Jan 3.4 05:37:34 10° SSW 05:41:54 69° W 05:46:18 10° N visible
29 Jan 6.3 04:17:35 10° SE 04:20:30 18° E 04:23:26 10° NE visible
29 Jan 4.0 05:53:54 10° SW 05:57:57 37° WNW 06:02:02 10° N visible
29 Jan 6.7 17:41:19 10° NW 17:43:31 14° W 17:45:43 10° WSW visible
